[[{"header":{"parameterUnit":"m.s-1","parameterCategory":1,"la1":30.2991,"la2":30.254,"lo1":-89.0895,"lo2":-89.0444,"dy":0.0017,"dx":0.0017,"nx":28,"ny":28,"refTime":"2024-05-01T21:00:00:Z","depth":0,"parameterNumber":2,"parameterNumberName":"U-component_of_WINDS"},"data":[0,0,0,0,0,0,0,0,0,0,0,0,0,0,0,0,0,0,0,0,0,0,0,0,0,0,0,0,0,0,0,0,0,0,0,0,0,0,0,0,0,0,0,0,0,0,0,0,0,0,0,0,0,0,0,0,0,0,-1.6734,-1.6734,0,-1.6707,-1.6706,-1.6706,-1.6653,-1.6652,-1.6651,-1.665,-1.6622,-1.6623,-1.6623,0,0,0,0,0,0,0,0,0,0,0,0,0,-1.6742,-1.6742,-1.6734,-1.6734,-1.6733,-1.6707,-1.6706,-1.6706,-1.6653,-1.6652,-1.6651,-1.665,-1.6622,-1.6623,-1.6623,0,0,0,0,0,0,0,0,0,0,0,0,0,-1.6729,-1.6742,-1.6734,-1.6704,-1.6701,-1.6707,-1.6706,-1.6706,-1.6654,-1.6652,-1.665,-1.6649,-1.6622,-1.6623,-1.6623,-1.6656,0,0,-1.6624,-1.6624,0,0,0,0,0,0,0,0,-1.673,-1.6729,-1.6709,-1.6706,-1.6703,-1.6682,-1.6699,-1.6689,-1.6654,-1.6672,-1.665,-1.6648,-1.6643,-1.6642,-1.664,-1.6655,-1.6654,-1.6624,-1.6624,-1.6624,-1.6624,0,0,0,0,0,0,0,-1.6731,-1.673,-1.6723,-1.6708,-1.6705,-1.6692,-1.6689,-1.6697,-1.6667,-1.667,-1.6666,-1.6663,-1.6641,-1.664,-1.6639,-1.6653,-1.6624,-1.6624,-1.6625,-1.6625,-1.6696,-1.6697,0,0,0,0,0,0,-1.6736,-1.6731,-1.6724,-1.6722,-1.6713,-1.6693,-1.6689,-1.669,-1.6666,-1.6661,-1.6665,-1.6661,-1.664,-1.6639,-1.6638,-1.6676,-1.6624,-1.6625,-1.6625,-1.6694,-1.6696,-1.6698,0,0,0,0,0,0,-1.6736,-1.6736,-1.6725,-1.6726,-1.6723,-1.6695,-1.6696,-1.669,-1.6689,-1.6662,-1.6657,-1.6669,-1.6639,-1.6638,-1.6652,-1.6674,-1.6625,-1.6625,-1.6692,-1.6695,-1.6697,-1.6753,0,0,0,0,0,0,-1.6737,-1.6736,-1.6748,-1.6726,-1.6723,-1.674,-1.6697,-1.6691,-1.6689,-1.6684,-1.6665,-1.666,-1.6638,-1.6652,-1.6653,-1.6674,-1.6625,-1.669,-1.6693,-1.6696,-1.6749,-1.6757,-1.6764,0,0,0,0,0,-1.6737,-1.6765,-1.6749,-1.6749,-1.6738,-1.6741,-1.674,-1.6713,-1.6691,-1.6704,-1.6687,-1.6661,-1.6672,-1.6654,-1.6654,-1.6676,-1.6688,-1.6692,-1.6696,-1.6745,-1.6755,-1.6763,0,0,0,0,0,0,-1.679,-1.6761,-1.6744,-1.6765,-1.6756,-1.6732,-1.6746,-1.6724,-1.6721,-1.6716,-1.6684,-1.668,-1.67,-1.6689,-1.667,-1.6708,-1.6676,-1.668,-1.6714,-1.6723,-1.673,-1.6732,-1.6626,0,0,0,0,0,-1.6804,-1.6809,-1.6784,-1.6805,-1.6801,-1.6775,-1.6775,-1.6756,-1.6745,-1.6741,-1.6726,-1.6717,-1.6718,-1.672,-1.672,-1.6747,-1.6743,-1.6762,-1.677,-1.6776,-1.678,-1.6795,-1.6803,-1.671,-1.671,-1.671,0,0,-1.6833,-1.6818,-1.6823,-1.6815,-1.6806,-1.6812,-1.6772,-1.678,-1.6785,-1.6743,-1.6756,-1.6744,-1.6732,-1.6754,-1.6762,-1.6746,-1.6805,-1.6781,-1.6786,-1.6786,-1.6799,-1.6808,-1.6816,-1.6713,-1.6712,-1.6712,0,0,-1.6889,-1.6878,-1.6895,-1.6887,-1.6874,-1.6856,-1.6861,-1.6841,-1.6831,-1.6844,-1.6813,-1.6819,-1.6822,-1.6815,-1.6812,-1.6867,-1.6843,-1.6868,-1.6907,-1.6922,-1.6929,-1.6936,-1.6956,-1.6964,-1.6872,-1.6872,-1.6873,0,-1.6927,-1.6935,-1.6907,-1.6917,-1.6915,-1.6878,-1.6895,-1.6888,-1.6876,-1.6876,-1.6858,-1.6862,-1.6851,-1.6871,-1.6885,-1.6883,-1.6888,-1.687,-1.6931,-1.6937,-1.6942,-1.6961,-1.6969,-1.6876,-1.6875,-1.6875,-1.6875,0,-1.6982,-1.6989,-1.7004,-1.6993,-1.6993,-1.7007,-1.6981,-1.6984,-1.6966,-1.695,-1.6965,-1.6951,-1.6948,-1.6951,-1.6933,-1.6969,-1.6959,-1.6936,-1.6904,-1.6955,-1.6972,-1.6979,-1.688,-1.6879,-1.6878,-1.6877,0,0,-1.707,-1.7044,-1.705,-1.7046,-1.7029,-1.7033,-1.7046,-1.7044,-1.7047,-1.7041,-1.7051,-1.7056,-1.7035,-1.7031,-1.7012,-1.7025,-1.7071,-1.7,-1.7,-1.7014,-1.7111,-1.7129,-1.7138,-1.7055,-1.7057,-1.7058,-1.7112,0,-1.7122,-1.7142,-1.7118,-1.7143,-1.7149,-1.7115,-1.7126,-1.7118,-1.7104,-1.7108,-1.7093,-1.7097,-1.7069,-1.7067,-1.7078,-1.7063,-1.709,-1.7059,-1.7065,-1.7066,-1.7069,-1.7147,-1.7164,-1.7217,-1.7119,-1.712,-1.7121,0,-1.7186,-1.7183,-1.7209,-1.7192,-1.7193,-1.7204,-1.72,-1.7204,-1.7194,-1.7184,-1.7181,-1.7158,-1.717,-1.7139,-1.7156,-1.7135,-1.7137,-1.713,-1.7131,-1.7131,-1.7096,-1.7148,-1.7233,-1.7241,-1.7131,-1.7131,-1.713,0,-1.7248,-1.725,-1.7266,-1.7263,-1.7243,-1.7252,-1.7244,-1.7233,-1.7233,-1.723,-1.7231,-1.7229,-1.7229,-1.7228,-1.7206,-1.7185,-1.7226,-1.7193,-1.7218,-1.7219,-1.7228,-1.7228,-1.7314,-1.7229,-1.7229,-1.7229,-1.7229,0,-1.7309,-1.7326,-1.7294,-1.7304,-1.7323,-1.7295,-1.7315,-1.7304,-1.7294,-1.7302,-1.7272,-1.728,-1.7251,-1.7256,-1.7239,-1.7256,-1.7255,-1.7248,-1.7243,-1.725,-1.7251,-1.7251,-1.7246,-1.7231,-1.723,-1.723,-1.723,0,-1.7381,-1.7359,-1.7375,-1.7356,-1.7351,-1.7366,-1.735,-1.7359,-1.7344,-1.7354,-1.7355,-1.7332,-1.7337,-1.7315,-1.7316,-1.7304,-1.733,-1.7319,-1.7333,-1.733,-1.7357,-1.7355,-1.7445,-1.7456,-1.7365,-1.7366,-1.7366,0,-1.7421,-1.7434,-1.7416,-1.7419,-1.7413,-1.7419,-1.7419,-1.7393,-1.7395,-1.7386,-1.7396,-1.7398,-1.7399,-1.7408,-1.7392,-1.7393,-1.7381,-1.7413,-1.7381,-1.7389,-1.7382,-1.7382,-1.7384,-1.742,-1.7421,-1.7422,-1.7423,0,-1.7495,-1.7485,-1.7486,-1.7485,-1.7486,-1.7484,-1.748,-1.7484,-1.7456,-1.746,-1.7464,-1.7465,-1.7466,-1.7469,-1.7467,-1.7459,-1.7437,-1.7433,-1.7439,-1.7447,-1.7455,-1.7451,-1.7352,-1.7431,-1.743,-1.743,-1.7429,-1.7429,-1.7553,-1.7563,-1.7553,-1.7556,-1.755,-1.7547,-1.7555,-1.7541,-1.7545,-1.7543,-1.7528,-1.7536,-1.7527,-1.7522,-1.7517,-1.7523,-1.7508,-1.7517,-1.7519,-1.7522,-1.7526,-1.7454,-1.7523,-1.7522,-1.7522,-1.7522,-1.7522,0,-1.7626,-1.7618,-1.7621,-1.7616,-1.7619,-1.7598,-1.7592,-1.7597,-1.7604,-1.7597,-1.7599,-1.7605,-1.7608,-1.7593,-1.7594,-1.7602,-1.7592,-1.7603,-1.7602,-1.7601,-1.7539,-1.7534,-1.7611,-1.7611,-1.7611,-1.7611,-1.7611,-1.7611,-1.7664,-1.7681,-1.7669,-1.7683,-1.7674,-1.7682,-1.768,-1.7678,-1.7673,-1.7681,-1.7683,-1.7673,-1.7664,-1.7664,-1.7667,-1.7662,-1.7664,-1.7679,-1.7671,-1.7614,-1.7605,-1.7597,-1.7592,-1.768,-1.768,-1.7732,-1.7733,-1.7733]},{"header":{"parameterUnit":"m.s-1","parameterCategory":1,"la1":30.2991,"la2":30.254,"lo1":-89.0895,"lo2":-89.0444,"dy":0.0017,"dx":0.0017,"nx":28,"ny":28,"refTime":"2024-05-01T21:00:00:Z","depth":0,"parameterNumber":3,"parameterNumberName":"V-component_of_WINDS"},"data":[0,0,0,0,0,0,0,0,0,0,0,0,0,0,0,0,0,0,0,0,0,0,0,0,0,0,0,0,0,0,0,0,0,0,0,0,0,0,0,0,0,0,0,0,0,0,0,0,0,0,0,0,0,0,0,0,0,0,2.5905,2.5905,0,2.5891,2.5891,2.5891,2.5898,2.5899,2.5899,2.59,2.5882,2.5881,2.588,0,0,0,0,0,0,0,0,0,0,0,0,0,2.5935,2.5935,2.5905,2.5905,2.5904,2.5891,2.5891,2.5891,2.5898,2.5899,2.5899,2.59,2.5882,2.5881,2.588,0,0,0,0,0,0,0,0,0,0,0,0,0,2.5922,2.5934,2.5905,2.5907,2.5907,2.5891,2.5891,2.5891,2.5898,2.5899,2.5899,2.59,2.5882,2.5881,2.588,2.586,0,0,2.5876,2.5875,0,0,0,0,0,0,0,0,2.5922,2.5921,2.5907,2.5907,2.5907,2.5897,2.5895,2.588,2.5898,2.5901,2.59,2.59,2.5886,2.5884,2.588,2.5859,2.5858,2.5876,2.5875,2.5874,2.5874,0,0,0,0,0,0,0,2.5923,2.5921,2.5899,2.5906,2.5906,2.5908,2.5906,2.5892,2.589,2.5901,2.5902,2.59,2.5886,2.5882,2.588,2.5858,2.5876,2.5875,2.5874,2.5873,2.5822,2.5821,0,0,0,0,0,0,2.5925,2.5922,2.59,2.5899,2.5916,2.5907,2.5905,2.5899,2.5891,2.589,2.59,2.5901,2.5884,2.5882,2.5879,2.5857,2.5874,2.5873,2.5873,2.5822,2.5821,2.5821,0,0,0,0,0,0,2.5925,2.5923,2.59,2.5911,2.5908,2.5905,2.5899,2.5899,2.5895,2.589,2.5889,2.5896,2.5884,2.5881,2.5865,2.5856,2.5873,2.5872,2.5823,2.5822,2.5821,2.5811,0,0,0,0,0,0,2.5926,2.5923,2.5916,2.591,2.5907,2.5887,2.5898,2.5898,2.5893,2.5894,2.5886,2.5885,2.5884,2.5867,2.5864,2.5855,2.5871,2.5824,2.5822,2.5821,2.5812,2.581,2.5808,0,0,0,0,0,2.5927,2.5912,2.5915,2.5913,2.5899,2.5886,2.5885,2.5885,2.5892,2.5885,2.5882,2.5885,2.5858,2.5866,2.5862,2.5852,2.5824,2.5823,2.5821,2.5813,2.581,2.5808,0,0,0,0,0,0,2.5915,2.5911,2.5915,2.5898,2.5893,2.5888,2.5879,2.5882,2.5874,2.5875,2.5875,2.5873,2.5857,2.5853,2.5862,2.5834,2.5842,2.584,2.5837,2.5834,2.5832,2.5833,2.5869,0,0,0,0,0,2.591,2.5902,2.5899,2.5884,2.5882,2.5881,2.5875,2.5877,2.5871,2.5868,2.5864,2.5857,2.5847,2.584,2.5831,2.5812,2.581,2.5803,2.5801,2.58,2.5798,2.5788,2.5785,2.5816,2.5816,2.5816,0,0,2.59,2.5898,2.5892,2.5882,2.5878,2.5869,2.5879,2.5868,2.5861,2.5866,2.5851,2.5848,2.584,2.5823,2.5816,2.582,2.5789,2.5798,2.5796,2.5795,2.5787,2.5784,2.5781,2.5815,2.5815,2.5816,0,0,2.5878,2.5875,2.5863,2.5859,2.5854,2.5854,2.5851,2.5846,2.5845,2.5831,2.5835,2.5826,2.5808,2.5803,2.5798,2.5776,2.5779,2.5773,2.5762,2.5753,2.575,2.5748,2.5741,2.5738,2.5771,2.5771,2.5771,0,2.5866,2.5853,2.5856,2.5846,2.5841,2.5848,2.5835,2.5831,2.5822,2.5819,2.5824,2.5804,2.5799,2.5781,2.5776,2.5772,2.5769,2.5774,2.5751,2.5749,2.5747,2.574,2.5737,2.577,2.577,2.5771,2.5771,0,2.5839,2.583,2.5821,2.5815,2.5809,2.5798,2.5799,2.5792,2.5795,2.5794,2.578,2.5774,2.5765,2.5761,2.5762,2.5743,2.5746,2.5751,2.5759,2.5743,2.5737,2.5734,2.5769,2.577,2.577,2.577,0,0,2.5807,2.5804,2.5801,2.5798,2.5794,2.5786,2.5776,2.5768,2.5763,2.5757,2.5748,2.5734,2.5739,2.5734,2.5734,2.5726,2.571,2.5732,2.5732,2.5729,2.5691,2.5688,2.5685,2.5713,2.5712,2.5712,2.5692,0,2.5785,2.5767,2.5771,2.5753,2.5745,2.5752,2.5743,2.5739,2.5738,2.573,2.5729,2.572,2.5727,2.5724,2.5716,2.5714,2.5703,2.5715,2.5704,2.5703,2.5706,2.5681,2.5677,2.5659,2.5689,2.5689,2.5688,0,2.5756,2.5752,2.5734,2.5732,2.5729,2.5721,2.5715,2.5708,2.5703,2.5703,2.5698,2.5701,2.569,2.5699,2.5684,2.5693,2.5688,2.5686,2.5686,2.5685,2.5695,2.568,2.5653,2.565,2.5684,2.5685,2.5685,0,2.5736,2.5725,2.5713,2.5711,2.5708,2.5702,2.5701,2.5697,2.5693,2.5687,2.5684,2.5677,2.5673,2.5667,2.5667,2.5674,2.5652,2.5661,2.5652,2.5652,2.5647,2.5647,2.5619,2.5643,2.5643,2.5643,2.5643,0,2.5711,2.57,2.5704,2.5697,2.5685,2.5689,2.5677,2.5676,2.5673,2.5666,2.567,2.5663,2.5664,2.5657,2.5657,2.5645,2.5643,2.5643,2.5643,2.5642,2.5643,2.5639,2.5641,2.5643,2.5643,2.5643,2.5643,0,2.5685,2.5688,2.5676,2.5675,2.5675,2.5666,2.5665,2.5659,2.5659,2.565,2.5648,2.5648,2.5639,2.564,2.563,2.563,2.5616,2.5617,2.5618,2.5618,2.5609,2.561,2.5578,2.5574,2.5601,2.5601,2.56,0,2.5669,2.5661,2.5661,2.5657,2.5655,2.5649,2.5645,2.5648,2.5644,2.564,2.5634,2.5626,2.5621,2.5607,2.5606,2.5599,2.56,2.559,2.5599,2.5599,2.5601,2.5601,2.5601,2.5588,2.5587,2.5587,2.5587,0,2.5641,2.5643,2.5638,2.5634,2.5629,2.5626,2.5622,2.5619,2.5622,2.5617,2.561,2.5605,2.5597,2.5589,2.5583,2.558,2.5584,2.5584,2.5582,2.5581,2.5582,2.5582,2.5613,2.5585,2.5585,2.5585,2.5585,2.5585,2.562,2.5614,2.5613,2.5607,2.5606,2.5603,2.5597,2.5598,2.5592,2.5586,2.5589,2.558,2.5577,2.5569,2.5567,2.556,2.5564,2.556,2.5559,2.5558,2.5558,2.5583,2.5559,2.5559,2.5559,2.5559,2.5559,0,2.5592,2.5592,2.5587,2.5584,2.558,2.5585,2.5582,2.5578,2.5572,2.5569,2.5564,2.5556,2.555,2.5549,2.5542,2.5537,2.5539,2.5536,2.5536,2.5536,2.5554,2.5557,2.5535,2.5535,2.5535,2.5535,2.5535,2.5535,2.5577,2.5568,2.557,2.556,2.556,2.5553,2.5551,2.5549,2.5547,2.5539,2.5534,2.5534,2.5532,2.5526,2.552,2.552,2.5518,2.5514,2.5514,2.5532,2.5534,2.5536,2.5539,2.5513,2.5513,2.5497,2.5496,2.5496]}]]